EW6013 Weather Reports


Display with metric or nautical units.
time (UTC)temp
F
wind
direction
speed
MPH
gust
MPH
rain 1hr
in
rain 24hr
in
rain mn
in
humidity
%
barometer
mb
20260508154017 57 180 0.0 6.0 0.00 0.00 0.00 42 1006.6
20260508153516 58 244 0.0 6.0 0.00 0.00 0.00 42 1006.7
20260508153036 58 296 0.0 1.0 0.00 0.00 0.00 44 1006.7
20260508152516 58 0.0 1.0 0.00 0.00 0.00 42 1006.7
20260508152016 58 232 0.0 1.0 0.00 0.00 0.00 43 1006.7
20260508151537 58 0.0 11.0 0.00 0.00 0.00 43 1006.7
20260508151017 57 319 1.0 11.0 0.00 0.00 0.00 44 1006.7
20260508150516 57 282 0.0 8.0 0.00 0.00 0.00 44 1006.7
20260508150015 57 0.0 1.0 0.00 0.00 0.00 44 1006.7
20260508145516 57 355 0.0 8.0 0.00 0.00 0.00 44 1006.8
20260508145017 56 257 1.0 8.0 0.00 0.00 0.00 48 1006.8
20260508144517 55 303 0.0 2.0 0.00 0.00 0.00 48 1006.9
20260508144016 54 0.0 0.0 0.00 0.00 0.00 46 1007.0
20260508143537 54 0.0 1.0 0.00 0.00 0.00 44 1007.1
20260508143016 54 230 0.0 1.0 0.00 0.00 0.00 44 1007.1
20260508142517 54 0.0 0.0 0.00 0.00 0.00 46 1007.1
20260508142016 53 0.0 0.0 0.00 0.00 0.00 47 1007.1
20260508141516 53 0.0 0.0 0.00 0.00 0.00 47 1007.1
20260508141017 53 0.0 0.0 0.00 0.00 0.00 48 1007.2
20260508140516 53 0.0 0.0 0.00 0.00 0.00 47 1007.2
20260508140016 53 0.0 0.0 0.00 0.00 0.00 47 1007.2
20260508135516 53 0.0 0.0 0.00 0.00 0.00 47 1007.3
20260508135016 53 0.0 1.0 0.00 0.00 0.00 47 1007.3
20260508134516 53 240 0.0 1.0 0.00 0.00 0.00 47 1007.3
20260508134036 53 290 0.0 1.0 0.00 0.00 0.00 48 1007.3
20260508133536 52 229 0.0 2.0 0.00 0.00 0.00 47 1007.3
20260508133016 52 201 0.0 2.0 0.00 0.00 0.00 47 1007.3
20260508132516 53 0.0 0.0 0.00 0.00 0.00 47 1007.3
20260508132036 53 0.0 1.0 0.00 0.00 0.00 48 1007.4
20260508131536 52 308 0.0 8.0 0.00 0.00 0.00 49 1007.3
20260508131016 52 290 0.0 8.0 0.00 0.00 0.00 49 1007.4
20260508130517 52 237 0.0 8.0 0.00 0.00 0.00 47 1007.4
20260508130016 52 300 0.0 11.0 0.00 0.00 0.00 48 1007.4
20260508125516 51 238 1.0 11.0 0.00 0.00 0.00 49 1007.3
20260508125016 51 284 0.0 9.0 0.00 0.00 0.00 49 1007.3
20260508124516 51 275 0.0 1.0 0.00 0.00 0.00 52 1007.3
20260508124016 50 301 0.0 1.0 0.00 0.00 0.00 54 1007.2
20260508123516 50 314 0.0 1.0 0.00 0.00 0.00 54 1007.3
20260508123016 49 0.0 1.0 0.00 0.00 0.00 56 1007.3
20260508122516 48 34 0.0 1.0 0.00 0.00 0.00 57 1007.3
20260508122036 48 0.0 0.0 0.00 0.00 0.00 59 1007.4
20260508121516 47 0.0 0.0 0.00 0.00 0.00 60 1007.3
20260508121036 47 0.0 1.0 0.00 0.00 0.00 61 1007.3
20260508120516 46 263 0.0 8.0 0.00 0.00 0.00 62 1007.4
20260508120056 46 272 0.0 8.0 0.00 0.00 0.00 62 1007.4
20260508115516 46 0.0 0.0 0.00 0.00 0.00 62 1007.5
20260508115016 45 0.0 2.0 0.00 0.00 0.00 62 1007.5
20260508114516 45 328 0.0 2.0 0.00 0.00 0.00 63 1007.4
20260508114016 44 0.0 0.0 0.00 0.00 0.00 63 1007.3
20260508113516 44 0.0 1.0 0.00 0.00 0.00 64 1007.3
20260508113016 44 262 0.0 1.0 0.00 0.00 0.00 65 1007.2
20260508112516 43 0.0 0.0 0.00 0.00 0.00 65 1007.2
20260508112016 43 0.0 0.0 0.00 0.00 0.00 66 1007.2
20260508111516 42 0.0 0.0 0.00 0.00 0.00 67 1007.2
20260508111016 42 0.0 0.0 0.00 0.00 0.00 67 1007.2
20260508110516 42 0.0 0.0 0.00 0.00 0.00 67 1007.2
20260508110016 42 0.0 0.0 0.00 0.00 0.00 68 1007.1
20260508105516 41 0.0 0.0 0.00 0.00 0.00 68 1007.1
20260508105016 41 0.0 0.0 0.00 0.00 0.00 68 1007.0
20260508104536 41 0.0 0.0 0.00 0.00 0.00 69 1007.0
20260508104036 40 0.0 0.0 0.00 0.00 0.00 70 1007.0
20260508103516 40 0.0 0.0 0.00 0.00 0.00 71 1006.9
20260508103016 39 0.0 0.0 0.00 0.00 0.00 72 1006.9
20260508102516 39 0.0 0.0 0.00 0.00 0.00 72 1006.8
20260508102016 39 0.0 0.0 0.00 0.00 0.00 73 1006.7
20260508101536 38 0.0 0.0 0.00 0.00 0.00 74 1006.6
20260508101016 38 0.0 0.0 0.00 0.00 0.00 74 1006.6
20260508100516 38 0.0 0.0 0.00 0.00 0.00 76 1006.6
20260508100016 38 0.0 0.0 0.00 0.00 0.00 76 1006.4
20260508095516 38 0.0 0.0 0.00 0.00 0.00 77 1006.4
20260508095016 38 0.0 0.0 0.00 0.00 0.00 78 1006.4
20260508094516 37 0.0 0.0 0.00 0.00 0.00 78 1006.4
20260508094016 37 0.0 0.0 0.00 0.00 0.00 78 1006.3
20260508093516 37 0.0 0.0 0.00 0.00 0.00 79 1006.3
20260508093016 37 0.0 0.0 0.00 0.00 0.00 80 1006.3
20260508092536 37 0.0 0.0 0.00 0.00 0.00 80 1006.3
20260508092016 37 0.0 0.0 0.00 0.00 0.00 81 1006.3
20260508091516 37 0.0 0.0 0.00 0.00 0.00 81 1006.3
20260508091016 37 0.0 0.0 0.00 0.00 0.00 80 1006.2
20260508090516 37 0.0 0.0 0.00 0.00 0.00 80 1006.2
20260508090016 37 0.0 0.0 0.00 0.00 0.00 79 1006.1
20260508085516 37 0.0 0.0 0.00 0.00 0.00 78 1006.1
20260508085016 37 0.0 0.0 0.00 0.00 0.00 79 1006.1
20260508084536 37 0.0 0.0 0.00 0.00 0.00 78 1006.2
20260508084015 37 0.0 0.0 0.00 0.00 0.00 78 1006.2
20260508083516 38 0.0 0.0 0.00 0.00 0.00 77 1006.2
20260508083015 38 0.0 0.0 0.00 0.00 0.00 77 1006.2
20260508082516 38 0.0 0.0 0.00 0.00 0.00 77 1006.1
20260508082036 38 0.0 0.0 0.00 0.00 0.00 77 1006.0
20260508081516 37 0.0 0.0 0.00 0.00 0.00 78 1006.0
20260508081036 37 0.0 0.0 0.00 0.00 0.00 78 1005.9
20260508080516 37 0.0 0.0 0.00 0.00 0.00 78 1005.9
20260508080015 37 0.0 0.0 0.00 0.00 0.00 79 1005.8
20260508075515 37 0.0 0.0 0.00 0.00 0.00 80 1005.7
20260508075036 37 0.0 0.0 0.00 0.00 0.00 82 1005.6
20260508074516 37 0.0 0.0 0.00 0.00 0.00 82 1005.4
20260508074016 38 0.0 0.0 0.00 0.00 0.00 81 1005.3
20260508073515 38 0.0 0.0 0.00 0.00 0.00 81 1005.3
20260508073015 38 0.0 0.0 0.00 0.00 0.00 80 1005.3
20260508072515 38 0.0 0.0 0.00 0.00 0.00 80 1005.2
20260508072055 38 0.0 0.0 0.00 0.00 0.00 80 1005.1
20260508071516 38 0.0 0.0 0.00 0.00 0.00 79 1005.1
20260508071015 38 0.0 0.0 0.00 0.00 0.00 78 1005.1
20260508070515 39 0.0 0.0 0.00 0.00 0.00 78 1005.1
20260508070036 39 0.0 0.0 0.00 0.00 0.00 78 1005.0
20260508065535 39 0.0 0.0 0.00 0.00 0.00 78 1005.0
20260508065016 39 0.0 0.0 0.00 0.00 0.00 77 1005.1
20260508064516 39 0.0 0.0 0.00 0.00 0.00 76 1005.1
20260508064015 39 0.0 0.0 0.00 0.00 0.00 76 1005.1
20260508063515 40 0.0 0.0 0.00 0.00 0.00 77 1005.2
20260508063016 40 0.0 0.0 0.00 0.00 0.00 77 1005.2
20260508062515 40 0.0 0.0 0.00 0.00 0.00 76 1005.2
20260508062015 40 0.0 0.0 0.00 0.00 0.00 76 1005.2
20260508061515 40 0.0 0.0 0.00 0.00 0.00 76 1005.2
20260508061015 40 0.0 0.0 0.00 0.00 0.00 75 1005.2
20260508060535 41 0.0 0.0 0.00 0.00 0.00 75 1005.3
20260508060015 41 0.0 0.0 0.00 0.00 0.00 75 1005.3
20260508055515 41 0.0 0.0 0.00 0.00 0.00 74 1005.3
20260508055015 41 0.0 0.0 0.00 0.00 0.00 73 1005.3
20260508054515 41 0.0 0.0 0.00 0.00 0.00 74 1005.4
20260508054015 41 0.0 0.0 0.00 0.00 0.00 74 1005.5
20260508053515 41 0.0 0.0 0.00 0.00 0.00 74 1005.6
20260508053015 42 0.0 0.0 0.00 0.00 0.00 73 1005.6
20260508052515 42 0.0 0.0 0.00 0.00 0.00 73 1005.5
20260508052015 42 0.0 0.0 0.00 0.00 0.00 72 1005.6
20260508051515 42 0.0 0.0 0.00 0.00 0.00 71 1005.6
20260508051015 42 0.0 0.0 0.00 0.00 0.00 71 1005.7
20260508050535 42 0.0 0.0 0.00 0.00 0.00 70 1005.8
20260508050015 43 0.0 0.0 0.00 0.00 0.00 69 1005.8
20260508045515 43 0.0 0.0 0.00 0.00 0.00 69 1005.8
20260508045015 43 0.0 0.0 0.00 0.00 0.00 69 1005.9
20260508044515 43 0.0 0.0 0.00 0.00 0.00 69 1005.8
20260508044015 43 0.0 0.0 0.00 0.00 0.00 68 1005.8
20260508043515 43 0.0 0.0 0.00 0.00 0.00 67 1005.9
20260508043015 44 0.0 0.0 0.00 0.00 0.00 67 1005.9
20260508042515 44 0.0 0.0 0.00 0.00 0.00 67 1005.9
20260508042035 44 0.0 0.0 0.00 0.01 0.00 66 1006.0
20260508041515 44 0.0 0.0 0.00 0.01 0.00 66 1006.0
20260508041015 44 0.0 0.0 0.00 0.01 0.00 66 1006.0
20260508040515 44 0.0 0.0 0.00 0.01 0.00 68 1005.9
20260508040135 44 0.0 0.0 0.00 0.01 0.01 67 1005.8
20260508035514 44 0.0 0.0 0.00 0.01 0.01 66 1005.8
20260508035015 45 0.0 0.0 0.00 0.01 0.01 65 1005.8
20260508034514 45 0.0 0.0 0.00 0.01 0.01 65 1005.8
20260508034035 45 0.0 0.0 0.00 0.01 0.01 66 1005.9
20260508033517 45 0.0 0.0 0.00 0.01 0.01 65 1005.9
20260508033017 45 0.0 0.0 0.00 0.01 0.01 65 1005.9
20260508032516 45 0.0 0.0 0.00 0.01 0.01 67 1005.8
20260508032017 45 0.0 0.0 0.00 0.01 0.01 66 1005.8
20260508031517 46 0.0 0.0 0.00 0.01 0.01 64 1005.8
20260508031017 46 0.0 0.0 0.00 0.01 0.01 65 1005.8
20260508030517 46 0.0 0.0 0.00 0.01 0.01 63 1005.8
20260508030017 46 0.0 0.0 0.00 0.01 0.01 64 1005.7
20260508025517 46 0.0 0.0 0.00 0.01 0.01 62 1005.7
20260508025017 46 0.0 0.0 0.00 0.01 0.01 62 1005.7
20260508024517 46 0.0 0.0 0.00 0.01 0.01 62 1005.7
20260508024016 46 0.0 0.0 0.00 0.01 0.01 62 1005.7
20260508023516 46 0.0 0.0 0.00 0.01 0.01 63 1005.7
20260508023037 46 0.0 0.0 0.00 0.01 0.01 63 1005.7
20260508022517 47 0.0 0.0 0.00 0.01 0.01 62 1005.6
20260508022016 47 0.0 0.0 0.00 0.01 0.01 62 1005.6
20260508021517 47 0.0 0.0 0.00 0.01 0.01 63 1005.6
20260508021017 46 0.0 0.0 0.00 0.01 0.01 63 1005.7
20260508020516 46 0.0 0.0 0.00 0.01 0.01 64 1005.6
20260508020016 47 0.0 0.0 0.00 0.01 0.01 63 1005.6
20260508015516 47 0.0 0.0 0.00 0.01 0.01 64 1005.6
20260508015016 47 0.0 0.0 0.00 0.01 0.01 64 1005.6
20260508014517 47 0.0 0.0 0.00 0.01 0.01 65 1005.5
20260508014016 48 0.0 0.0 0.00 0.01 0.01 63 1005.4
20260508013517 48 0.0 0.0 0.00 0.01 0.01 64 1005.3
20260508013016 49 0.0 0.0 0.00 0.01 0.01 64 1005.2
20260508012516 49 0.0 0.0 0.00 0.01 0.01 63 1005.1
20260508012016 50 0.0 0.0 0.00 0.01 0.01 60 1005.0
20260508011516 50 0.0 0.0 0.00 0.01 0.01 59 1004.9
20260508011016 50 0.0 0.0 0.00 0.01 0.01 56 1004.9
20260508010516 50 0.0 0.0 0.00 0.01 0.01 54 1004.8
20260508010016 50 0.0 0.0 0.00 0.01 0.01 54 1004.8
20260508005516 51 0.0 0.0 0.00 0.01 0.01 53 1004.7
20260508005016 51 0.0 0.0 0.00 0.01 0.01 52 1004.6
20260508004516 52 0.0 0.0 0.00 0.01 0.01 51 1004.5
20260508004016 52 0.0 0.0 0.00 0.01 0.01 50 1004.5
20260508003516 52 0.0 0.0 0.00 0.01 0.01 49 1004.4
20260508003016 53 0.0 0.0 0.00 0.01 0.01 47 1004.4
20260508002516 53 0.0 0.0 0.00 0.01 0.01 46 1004.3
20260508002016 53 0.0 0.0 0.00 0.01 0.01 46 1004.4
20260508001517 54 0.0 0.0 0.00 0.01 0.01 45 1004.3
20260508001016 54 0.0 0.0 0.00 0.01 0.01 45 1004.3
20260508000516 54 0.0 0.0 0.00 0.02 0.01 44 1004.2
20260508000016 55 0.0 0.0 0.00 0.02 0.01 44 1004.2
20260507235516 55 0.0 0.0 0.00 0.02 0.01 43 1004.2
20260507235016 55 0.0 0.0 0.00 0.02 0.01 43 1004.1
20260507234516 55 0.0 0.0 0.00 0.02 0.01 42 1004.0
20260507234016 56 0.0 0.0 0.00 0.03 0.01 42 1004.0
20260507233516 56 0.0 0.0 0.00 0.03 0.01 41 1004.0
20260507233016 56 0.0 1.0 0.00 0.03 0.01 41 1004.0
20260507232516 56 259 0.0 1.0 0.00 0.03 0.01 41 1004.0
20260507232036 57 0.0 0.0 0.00 0.03 0.01 40 1003.9
20260507231536 57 0.0 1.0 0.00 0.04 0.01 39 1003.8
20260507231036 57 1 0.0 1.0 0.00 0.04 0.01 38 1003.8
20260507230516 57 0.0 0.0 0.00 0.04 0.01 38 1003.8
20260507230016 58 0.0 0.0 0.00 0.05 0.01 38 1003.7
20260507225516 58 0.0 0.0 0.00 0.05 0.01 38 1003.6
20260507225016 58 0.0 0.0 0.00 0.05 0.01 37 1003.6
20260507224516 58 0.0 0.0 0.00 0.05 0.01 37 1003.6
20260507224016 58 0.0 0.0 0.00 0.06 0.01 37 1003.5
20260507223516 59 0.0 1.0 0.00 0.06 0.01 37 1003.4
20260507223016 59 242 0.0 1.0 0.00 0.06 0.01 37 1003.4
20260507222516 59 213 0.0 1.0 0.00 0.07 0.01 36 1003.4
20260507222016 59 0.0 1.0 0.00 0.07 0.01 37 1003.4
20260507221516 59 264 0.0 1.0 0.00 0.07 0.01 37 1003.3
20260507221016 59 0.0 1.0 0.00 0.07 0.01 37 1003.3
20260507220516 59 231 0.0 1.0 0.00 0.07 0.01 37 1003.2
20260507220016 59 0.0 0.0 0.00 0.08 0.01 36 1003.2
20260507215516 60 0.0 0.0 0.00 0.08 0.01 36 1003.2
20260507215016 60 0.0 0.0 0.00 0.08 0.01 36 1003.1
20260507214516 60 0.0 8.0 0.00 0.09 0.01 36 1003.0
20260507214016 59 272 0.0 11.0 0.00 0.09 0.01 35 1003.0
20260507213516 60 274 1.0 11.0 0.00 0.09 0.01 36 1003.0
20260507213016 60 0.0 2.0 0.00 0.09 0.01 36 1003.0
20260507212516 60 226 0.0 10.0 0.00 0.10 0.01 35 1003.0
20260507212036 60 300 1.0 10.0 0.00 0.10 0.01 38 1003.0
20260507211515 60 320 1.0 9.0 0.00 0.10 0.01 38 1003.0
20260507211036 60 291 1.0 9.0 0.00 0.10 0.01 37 1003.0
20260507210516 60 339 1.0 13.0 0.00 0.10 0.01 38 1003.1
20260507210016 60 275 1.0 13.0 0.00 0.10 0.01 36 1003.0
20260507205516 61 259 0.0 9.0 0.00 0.11 0.01 36 1003.0
20260507205016 61 283 2.0 9.0 0.00 0.11 0.01 36 1003.0
20260507204516 61 13 0.0 1.0 0.00 0.11 0.01 35 1003.0
20260507204015 62 9 0.0 1.0 0.00 0.12 0.01 35 1003.0
20260507203515 62 0.0 15.0 0.00 0.12 0.01 37 1003.0
20260507203016 62 291 2.0 15.0 0.00 0.13 0.01 35 1003.0
20260507202516 62 247 3.0 9.0 0.00 0.13 0.01 36 1003.0
20260507202016 62 0.0 0.0 0.00 0.13 0.01 35 1003.0
20260507201516 63 0.0 0.0 0.00 0.14 0.01 34 1002.9
20260507201016 63 0.0 0.0 0.00 0.14 0.01 34 1003.0
20260507200516 63 0.0 4.0 0.00 0.15 0.01 37 1003.0
20260507200015 63 215 0.0 4.0 0.00 0.15 0.01 39 1003.0
20260507195515 62 223 0.0 12.0 0.00 0.15 0.01 37 1003.0
20260507195016 62 281 1.0 12.0 0.00 0.15 0.01 36 1003.1
20260507194535 63 0.0 1.0 0.00 0.15 0.01 37 1003.0
20260507194016 63 299 0.0 1.0 0.00 0.15 0.01 38 1003.1
20260507193515 63 0.0 8.0 0.00 0.15 0.01 37 1003.1
20260507193016 63 274 0.0 8.0 0.00 0.15 0.01 37 1003.3
20260507192536 63 75 0.0 2.0 0.00 0.15 0.01 37 1003.1
20260507192015 63 207 0.0 2.0 0.00 0.15 0.01 36 1003.2
20260507191515 63 0.0 2.0 0.00 0.15 0.01 37 1003.3
20260507191015 63 328 0.0 12.0 0.00 0.15 0.01 36 1003.4
20260507190535 63 263 1.0 12.0 0.00 0.15 0.01 38 1003.4
20260507190036 63 0.0 3.0 0.00 0.16 0.01 37 1003.4
20260507185515 62 34 0.0 4.0 0.00 0.16 0.01 39 1003.4
20260507185015 62 297 0.0 6.0 0.00 0.16 0.01 40 1003.5
20260507184515 62 309 1.0 6.0 0.00 0.17 0.01 38 1003.6
20260507184015 63 242 0.0 1.0 0.00 0.17 0.01 36 1003.6
20260507183515 63 0.0 0.0 0.00 0.17 0.01 35 1003.8
20260507183035 63 0.0 0.0 0.00 0.18 0.01 38 1003.8
20260507182535 63 0.0 1.0 0.00 0.18 0.01 37 1003.9
20260507182015 63 279 0.0 1.0 0.00 0.19 0.01 38 1003.9
20260507181515 62 0.0 0.0 0.00 0.19 0.01 37 1003.9
20260507181015 62 0.0 1.0 0.00 0.20 0.01 38 1004.0
20260507180515 62 304 0.0 12.0 0.00 0.20 0.01 38 1004.0
20260507180015 62 298 1.0 12.0 0.00 0.21 0.01 35 1004.0
20260507175515 63 256 0.0 11.0 0.00 0.21 0.01 37 1004.1
20260507175015 63 249 0.0 11.0 0.00 0.21 0.01 39 1003.9
20260507174515 63 0.0 0.0 0.00 0.21 0.01 39 1004.0
20260507174016 63 0.0 11.0 0.00 0.21 0.01 36 1003.9
20260507173515 63 260 1.0 11.0 0.00 0.21 0.01 38 1004.0
20260507173015 63 348 0.0 10.0 0.00 0.21 0.01 40 1003.9
20260507172515 63 0.0 2.0 0.00 0.21 0.01 39 1003.9
20260507172035 63 322 0.0 2.0 0.00 0.21 0.01 39 1003.8
20260507171515 63 306 0.0 2.0 0.00 0.21 0.01 40 1003.9
20260507171015 63 0.0 1.0 0.00 0.21 0.01 41 1004.1
20260507170515 62 242 0.0 1.0 0.00 0.21 0.01 39 1004.1
20260507170015 62 0.0 0.0 0.00 0.21 0.01 39 1004.2
20260507165515 62 0.0 4.0 0.00 0.21 0.01 39 1004.3
20260507165035 63 249 0.0 4.0 0.00 0.21 0.01 38 1004.4
20260507164515 63 0.0 1.0 0.00 0.21 0.01 42 1004.4
20260507164015 62 279 0.0 1.0 0.00 0.21 0.01 44 1004.5
20260507163515 62 0.0 6.0 0.00 0.21 0.01 43 1004.5
20260507163035 62 315 0.0 6.0 0.00 0.21 0.01 43 1004.5
20260507162515 61 353 0.0 1.0 0.00 0.21 0.01 47 1004.6
20260507162015 60 0.0 9.0 0.00 0.21 0.01 46 1004.6
20260507161515 60 290 0.0 12.0 0.00 0.21 0.01 46 1004.7
20260507161015 60 192 1.0 12.0 0.00 0.21 0.01 44 1004.7
20260507160515 61 0.0 1.0 0.00 0.21 0.01 48 1004.9
20260507160015 60 263 0.0 1.0 0.00 0.21 0.01 53 1004.9
20260507155515 60 302 0.0 1.0 0.00 0.21 0.01 50 1004.9
20260507155015 60 0.0 0.0 0.00 0.21 0.01 50 1004.9
20260507154515 60 0.0 0.0 0.00 0.21 0.01 52 1005.0